COSMOS 1975

Last updated on Thu Oct 30 2025 00:02:15 GMT+0000 (Coordinated Universal Time)

1 19573U 88093A 25302.32139452 .00014071 00000+0 55507-3 0 9991 2 19573 82.5202 249.2564 0009379 276.8029 83.2142 15.25398494999355
UTC large
Height (km)
Speed (km/s)
/
Latitude / Longitude
Inclination (degrees)
Orbital Period (minutes)
Azimuth
Elevation
Range (km)
Doppler Factor

Next 0 passes for location: London (51.5072 / 0.1276)

Sorry there are no passes over London.